Galicia — ECEC — position and weather

sailwx.info

Track history (hours):
 
Tides and Currents Weather Stations Pressure Air Temp Water Temp Dewpoint Dewpoint Depression Visibility Wind Speed Wind Dir Waves Ship Positions

Galicia

Last reported at 2014-Jul-23 13:15 UTC. Time now 2014-Jul-23 22:09 UTC.
Position N 36°26' W 002°15'.

Length 149 m; draft 5.3 m.

Type: Cargo ship. MMSI: 224548000.

Date/timePositionNaut miles runAvg speedWind from/ knotsBaromVisibWave heightAir tempDewpointWater temp
2014-Jul-23 13:15N 36°26' W 002°15'1114.4
2014-Jul-23 12:31N 36°31' W 002°03'3415.6
2014-Jul-23 10:20N 36°54' W 001°31'1415.7
2014-Jul-23 09:25N 37°03' W 001°18'1415.5
2014-Jul-23 08:33N 37°12' W 001°05'1515.4
2014-Jul-23 07:33N 37°22' W 000°51'1515.3
2014-Jul-23 06:33N 37°32' W 000°37'1615.3
2014-Jul-23 05:29N 37°45' W 000°24'1514.9
2014-Jul-23 04:29N 37°58' W 000°14'2914.9
2014-Jul-23 02:32N 38°22' E 000°06'1715.3
2014-Jul-23 01:25N 38°37' E 000°18'1315.3
2014-Jul-23 00:33N 38°48' E 000°27'1815.1
2014-Jul-22 23:22N 39°04' E 000°38'1215.1
2014-Jul-22 22:33N 39°15' E 000°45'3115.5
2014-Jul-22 20:33N 39°42' E 001°05'1615.5
2014-Jul-22 19:33N 39°55' E 001°15'1615.5
2014-Jul-22 18:33N 40°09' E 001°23'1515.3
2014-Jul-22 17:34N 40°23' E 001°33'1515.1
2014-Jul-22 16:33N 40°36' E 001°42'1815.1
2014-Jul-22 15:23N 40°52' E 001°53'1315.1
2014-Jul-22 14:31N 41°03' E 002°01'1414.9
2014-Jul-22 13:33N 41°16' E 002°10'4 4.3
2014-Jul-22 12:33N 41°20' E 002°09'0 0.0
2014-Jul-22 11:18N 41°20' E 002°09'0 0.0
2014-Jul-22 10:12N 41°20' E 002°09'0 0.0
2014-Jul-22 09:24N 41°20' E 002°09'0 0.0
2014-Jul-22 08:30N 41°20' E 002°09'0 0.0
2014-Jul-22 05:10N 41°20' E 002°09'0 0.5
2014-Jul-22 04:33N 41°20' E 002°09'8 6.9
2014-Jul-22 03:25N 41°15' E 002°17'10 9.0
2014-Jul-22 02:21N 41°08' E 002°08'1010.3
2014-Jul-22 01:20N 40°59' E 002°01'810.3
2014-Jul-22 00:33N 40°52' E 001°56'1010.1
2014-Jul-21 23:32N 40°43' E 001°50'1010.1
2014-Jul-21 22:33N 40°34' E 001°44'1010.0
2014-Jul-21 21:33N 40°24' E 001°39'1010.0
2014-Jul-21 20:33N 40°16' E 001°32'310.2
2014-Jul-21 20:18N 40°14' E 001°31'810.1
2014-Jul-21 19:33N 40°07' E 001°26'1010.2
2014-Jul-21 18:33N 39°58' E 001°20'1110.6
2014-Jul-21 17:32N 39°48' E 001°13'13610.2
2014-Jul-21 04:15N 37°51' W 000°15'7 9.3
2014-Jul-21 03:32N 37°46' W 000°19'9 9.4
2014-Jul-21 02:33N 37°38' W 000°26'  
2014-Jul-15 05:30N 38°51' W 010°36'  
Track history (hours):
 
Tides and Currents Weather Stations Pressure Air Temp Water Temp Dewpoint Dewpoint Depression Visibility Wind Speed Wind Dir Waves Ship Positions

Galicia

Last reported at 2014-Jul-23 13:15 UTC. Time now 2014-Jul-23 22:09 UTC.
Position N 36°26' W 002°15'.

Length 149 m; draft 5.3 m.

Type: Cargo ship. MMSI: 224548000.

Date/timePositionNaut miles runAvg speedWind from/ knotsBaromVisibWave heightAir tempDewpointWater temp
2014-Jul-23 13:15N 36°26' W 002°15'1114.4
2014-Jul-23 12:31N 36°31' W 002°03'3415.6
2014-Jul-23 10:20N 36°54' W 001°31'1415.7
2014-Jul-23 09:25N 37°03' W 001°18'1415.5
2014-Jul-23 08:33N 37°12' W 001°05'1515.4
2014-Jul-23 07:33N 37°22' W 000°51'1515.3
2014-Jul-23 06:33N 37°32' W 000°37'1615.3
2014-Jul-23 05:29N 37°45' W 000°24'1514.9
2014-Jul-23 04:29N 37°58' W 000°14'2914.9
2014-Jul-23 02:32N 38°22' E 000°06'1715.3
2014-Jul-23 01:25N 38°37' E 000°18'1315.3
2014-Jul-23 00:33N 38°48' E 000°27'1815.1
2014-Jul-22 23:22N 39°04' E 000°38'1215.1
2014-Jul-22 22:33N 39°15' E 000°45'3115.5
2014-Jul-22 20:33N 39°42' E 001°05'1615.5
2014-Jul-22 19:33N 39°55' E 001°15'1615.5
2014-Jul-22 18:33N 40°09' E 001°23'1515.3
2014-Jul-22 17:34N 40°23' E 001°33'1515.1
2014-Jul-22 16:33N 40°36' E 001°42'1815.1
2014-Jul-22 15:23N 40°52' E 001°53'1315.1
2014-Jul-22 14:31N 41°03' E 002°01'1414.9
2014-Jul-22 13:33N 41°16' E 002°10'4 4.3
2014-Jul-22 12:33N 41°20' E 002°09'0 0.0
2014-Jul-22 11:18N 41°20' E 002°09'0 0.0
2014-Jul-22 10:12N 41°20' E 002°09'0 0.0
2014-Jul-22 09:24N 41°20' E 002°09'0 0.0
2014-Jul-22 08:30N 41°20' E 002°09'0 0.0
2014-Jul-22 05:10N 41°20' E 002°09'0 0.5
2014-Jul-22 04:33N 41°20' E 002°09'8 6.9
2014-Jul-22 03:25N 41°15' E 002°17'10 9.0
2014-Jul-22 02:21N 41°08' E 002°08'1010.3
2014-Jul-22 01:20N 40°59' E 002°01'810.3
2014-Jul-22 00:33N 40°52' E 001°56'1010.1
2014-Jul-21 23:32N 40°43' E 001°50'1010.1
2014-Jul-21 22:33N 40°34' E 001°44'1010.0
2014-Jul-21 21:33N 40°24' E 001°39'1010.0
2014-Jul-21 20:33N 40°16' E 001°32'310.2
2014-Jul-21 20:18N 40°14' E 001°31'810.1
2014-Jul-21 19:33N 40°07' E 001°26'1010.2
2014-Jul-21 18:33N 39°58' E 001°20'1110.6
2014-Jul-21 17:32N 39°48' E 001°13'13610.2
2014-Jul-21 04:15N 37°51' W 000°15'7 9.3
2014-Jul-21 03:32N 37°46' W 000°19'9 9.4
2014-Jul-21 02:33N 37°38' W 000°26'  
2014-Jul-15 05:30N 38°51' W 010°36'  

Dump ship's entire track history